P/2019 Y2 ( Fuls )

Japanese version
Home page
Updated on May 24, 2020

---------------------------------------------------------------------

* Profile

Discovery Date December 21, 2019
Magnitude 18.8 mag
Discoverer D. Carson Fuls (Mount Lemmon Survey)

* Pictures

* Orbital Elements

Epoch 2020 Feb. 1.0 TT = JDT 2458880.5
T 2020 Jan. 31.80541 TT                                 Rudenko
q   2.1248362            (2000.0)            P               Q
n   0.15349957     Peri.   92.33166     -0.98930021     -0.11910047
a   3.4546014      Node    80.83661     +0.07468248     -0.90956479
e   0.3849258      Incl.    4.89625     +0.12533004     -0.39812935
P   6.42
From 584 observations 2019 Dec. 21-2020 May 16, mean residual 0".6.

* Finding Charts

* Magnitudes Graph

        m1 = 12.8 + 5 log d + 10.0 log r

---------------------------------------------------------------------

The orbital elements are published on M.P.E.C. 2020-K117.
The charts are made with StellaNavigator Ver.10 (AstroArts).
The magnitudes graphs are made with Comet for Windows.

---------------------------------------------------------------------

Copyright(C) Seiichi Yoshida (comet@aerith.net). All rights reserved.